SNUSAT-1B

Last updated on Mon Apr 01 2019 00:02:07 GMT+0000 (Coordinated Universal Time)

1 42727U 98067MG 19089.91797841 .06519165 12339-4 59073-3 0 9997 2 42727 51.6087 308.8243 0009316 268.9251 91.0707 16.37980460105869

Satellite not in orbit

SNUSAT-1B